Date String (YYYY-MM-DD hh:mm:ss) UTC,Instrument flags,Ambient pressure (hPa),Sample flow (lpm),Bypass flow (lpm),Sample temperature (°C),Ambient temperature (°C),ASC tube jacket temperature (°C),LED temperature (°C),Box temperature (°C),Sample RH (%),Span deviation,Mass concentration (μg/m³),Mass concentration (μg/m³),Mass concentration (μg/m³)
DateTimeUTC,F1_M11,P_M11,Q1_M11,Q2_M11,T1_M11,T2_M11,T3_M11,T4_M11,T5_M11,U1_M11,ZSPAN_M11,X0_M11,X2_M11,X1_M11
2022-08-09 02:00:00,,0829.2,4.99,0.00,29.5,28.2,00.0,38.3,31.5,21.8,0000.0,0008.55,0004.42,0003.86
2022-08-09 02:01:00,,0829.2,5.00,0.00,29.5,28.4,00.0,38.3,31.6,22.0,0000.0,0008.35,0004.37,0003.86
2022-08-09 02:02:00,,0829.3,5.00,0.00,29.6,28.5,00.0,38.3,31.6,22.9,0000.0,0008.17,0004.37,0003.85
2022-08-09 02:03:00,,0829.1,5.01,0.00,29.6,28.1,00.0,38.3,31.5,23.4,0000.0,0007.89,0004.38,0003.86
2022-08-09 02:04:00,,0829.2,5.00,0.00,29.5,27.4,00.0,38.3,31.3,23.9,0000.0,0007.52,0004.41,0003.87
2022-08-09 02:05:00,,0829.2,4.99,0.00,29.5,27.2,00.0,38.2,31.2,24.1,0000.0,0007.43,0004.45,0003.90
2022-08-09 02:06:00,,0829.1,4.99,0.00,29.4,27.2,00.0,38.2,31.1,24.3,0000.0,0007.47,0004.47,0003.93
2022-08-09 02:07:00,,0829.2,5.01,0.00,29.4,27.4,00.0,38.2,31.2,24.4,0000.0,0007.44,0004.47,0003.95
2022-08-09 02:08:00,,0829.2,4.99,0.00,29.4,27.6,00.0,38.2,31.2,24.4,0000.0,0007.45,0004.49,0003.96
2022-08-09 02:09:00,,0829.2,5.00,0.00,29.4,27.8,00.0,38.2,31.3,24.4,0000.0,0007.74,0004.47,0003.97
2022-08-09 02:10:00,,0829.3,5.00,0.00,29.4,28.0,00.0,38.2,31.4,24.2,0000.0,0007.81,0004.49,0003.98
2022-08-09 02:11:00,,0829.0,5.00,0.00,29.5,28.2,00.0,38.2,31.5,24.7,0000.0,0007.97,0004.55,0004.00
2022-08-09 02:12:00,,0828.8,5.00,0.00,29.5,28.4,00.0,38.3,31.6,24.7,0000.0,0008.04,0004.59,0004.02
2022-08-09 02:13:00,,0828.7,5.00,0.00,29.6,28.4,00.0,38.3,31.6,24.8,0000.0,0008.02,0004.58,0004.03
2022-08-09 02:14:00,,0828.8,4.98,0.00,29.6,27.8,00.0,38.2,31.3,25.7,0000.0,0008.93,0004.64,0004.06
2022-08-09 02:15:00,,0829.1,5.00,0.00,29.5,27.3,00.0,38.2,31.3,26.5,0000.0,0009.09,0004.67,0004.08
2022-08-09 02:16:00,,0828.9,5.00,0.00,29.4,27.1,00.0,38.2,31.2,27.6,0000.0,0009.18,0004.72,0004.10
2022-08-09 02:17:00,,0828.7,5.01,0.00,29.4,27.2,00.0,38.2,31.1,27.4,0000.0,0009.18,0004.74,0004.10
2022-08-09 02:18:00,,0828.8,4.99,0.00,29.4,27.4,00.0,38.2,31.2,26.4,0000.0,0009.65,0004.75,0004.11
2022-08-09 02:19:00,,0828.7,5.00,0.00,29.4,27.6,00.0,38.2,31.2,26.1,0000.0,0009.77,0004.75,0004.13
2022-08-09 02:20:00,,0828.7,5.00,0.00,29.4,27.8,00.0,38.2,31.3,26.7,0000.0,0009.61,0004.78,0004.15
2022-08-09 02:21:00,,0828.7,5.00,0.00,29.4,28.0,00.0,38.2,31.4,26.8,0000.0,0009.58,0004.80,0004.16
2022-08-09 02:22:00,,0828.7,5.00,0.00,29.5,28.2,00.0,38.2,31.5,26.8,0000.0,0009.56,0004.79,0004.17
2022-08-09 02:23:00,,0828.7,5.01,0.00,29.5,28.3,00.0,38.2,31.5,26.8,0000.0,0009.60,0004.80,0004.18
2022-08-09 02:24:00,,0828.8,5.01,0.00,29.6,28.5,00.0,38.2,31.6,26.5,0000.0,0009.69,0004.82,0004.19
2022-08-09 02:25:00,,0828.8,5.00,0.00,29.6,28.3,00.0,38.2,31.5,26.5,0000.0,0008.99,0004.79,0004.20
2022-08-09 02:26:00,,0828.7,4.99,0.00,29.5,27.6,00.0,38.2,31.3,26.3,0000.0,0008.84,0004.75,0004.19
2022-08-09 02:27:00,,0828.7,5.01,0.00,29.5,27.1,00.0,38.2,31.2,26.3,0000.0,0008.77,0004.73,0004.18
2022-08-09 02:28:00,,0828.7,5.00,0.00,29.4,27.1,00.0,38.2,31.1,26.4,0000.0,0008.79,0004.70,0004.17
2022-08-09 02:29:00,,0828.7,5.00,0.00,29.3,27.2,00.0,38.2,31.1,26.7,0000.0,0008.97,0004.75,0004.17
2022-08-09 02:30:00,,0828.7,5.00,0.00,29.3,27.4,00.0,38.2,31.1,26.6,0000.0,0008.99,0004.76,0004.16
2022-08-09 02:31:00,,0828.8,5.00,0.00,29.3,27.6,00.0,38.2,31.2,26.7,0000.0,0008.88,0004.75,0004.15
2022-08-09 02:32:00,,0829.2,5.01,0.00,29.4,27.8,00.0,38.2,31.3,26.8,0000.0,0008.82,0004.74,0004.15
2022-08-09 02:33:00,,0829.3,5.00,0.00,29.4,28.0,00.0,38.2,31.4,27.0,0000.0,0008.77,0004.75,0004.15
2022-08-09 02:34:00,,0829.1,5.00,0.00,29.4,28.2,00.0,38.2,31.4,27.3,0000.0,0008.90,0004.79,0004.16
2022-08-09 02:35:00,,0829.3,5.00,0.00,29.5,28.3,00.0,38.2,31.5,27.1,0000.0,0009.02,0004.82,0004.16
2022-08-09 02:36:00,,0829.2,4.99,0.00,29.5,28.4,00.0,38.2,31.6,27.1,0000.0,0008.98,0004.81,0004.16
2022-08-09 02:37:00,,0829.0,5.00,0.00,29.5,28.1,00.0,38.2,31.4,27.3,0000.0,0009.54,0004.84,0004.17
2022-08-09 02:38:00,,0828.8,5.01,0.00,29.5,27.4,00.0,38.2,31.2,27.4,0000.0,0009.63,0004.81,0004.17
2022-08-09 02:39:00,,0829.0,4.99,0.00,29.4,27.1,00.0,38.2,31.2,27.3,0000.0,0009.76,0004.83,0004.18
2022-08-09 02:40:00,,0828.8,5.00,0.00,29.3,27.1,00.0,38.1,31.1,27.3,0000.0,0009.35,0004.80,0004.20
2022-08-09 02:41:00,,0828.9,4.99,0.00,29.3,27.2,00.0,38.1,31.1,26.9,0000.0,0008.91,0004.77,0004.20
2022-08-09 02:42:00,,0828.9,5.00,0.00,29.3,27.4,00.0,38.1,31.1,26.4,0000.0,0008.84,0004.74,0004.19
2022-08-09 02:43:00,,0828.8,5.00,0.00,29.3,27.6,00.0,38.1,31.2,26.8,0000.0,0008.87,0004.74,0004.20
2022-08-09 02:44:00,,0828.9,5.00,0.00,29.3,27.8,00.0,38.1,31.3,26.8,0000.0,0009.56,0004.72,0004.19
2022-08-09 02:45:00,,0828.8,4.99,0.00,29.4,28.0,00.0,38.1,31.4,26.7,0000.0,0009.77,0004.69,0004.19
2022-08-09 02:46:00,,0828.8,5.00,0.00,29.4,28.1,00.0,38.2,31.4,26.7,0000.0,0009.84,0004.68,0004.19
2022-08-09 02:47:00,,0828.8,5.00,0.00,29.5,28.3,00.0,38.2,31.5,26.6,0000.0,0009.67,0004.68,0004.18
2022-08-09 02:48:00,,0828.8,5.00,0.00,29.5,28.4,00.0,38.2,31.5,26.6,0000.0,0009.08,0004.67,0004.18
2022-08-09 02:49:00,,0828.9,5.00,0.00,29.5,28.5,00.0,38.2,31.6,26.7,0000.0,0009.03,0004.69,0004.19
2022-08-09 02:50:00,,0828.8,5.01,0.00,29.5,28.0,00.0,38.2,31.4,26.7,0000.0,0009.00,0004.69,0004.19
2022-08-09 02:51:00,,0828.9,5.01,0.00,29.5,27.2,00.0,38.2,31.2,26.7,0000.0,0009.30,0004.70,0004.20
2022-08-09 02:52:00,,0828.9,4.99,0.00,29.4,27.0,00.0,38.2,31.2,26.6,0000.0,0009.49,0004.71,0004.20
2022-08-09 02:53:00,,0828.9,4.99,0.00,29.3,27.1,00.0,38.1,31.0,26.8,0000.0,0009.59,0004.76,0004.22
2022-08-09 02:54:00,,0828.9,5.01,0.00,29.3,27.2,00.0,38.1,31.1,27.0,0000.0,0009.67,0004.81,0004.23
2022-08-09 02:55:00,,0829.0,5.01,0.00,29.3,27.4,00.0,38.1,31.1,27.1,0000.0,0008.96,0004.83,0004.25
2022-08-09 02:56:00,,0829.0,4.99,0.00,29.3,27.6,00.0,38.1,31.2,27.3,0000.0,0008.72,0004.84,0004.26
2022-08-09 02:57:00,,0829.0,5.00,0.00,29.3,27.8,00.0,38.1,31.3,27.3,0000.0,0008.69,0004.85,0004.27
2022-08-09 02:58:00,,0829.0,5.01,0.00,29.4,28.0,00.0,38.1,31.4,27.2,0000.0,0008.73,0004.85,0004.28
2022-08-09 02:59:00,,0829.1,5.00,0.00,29.4,28.2,00.0,38.1,31.4,27.2,0000.0,0008.84,0004.89,0004.29
